Date String (YYYY-MM-DD hh:mm:ss) UTC,Instrument flags,Ambient pressure (hPa),Sample flow (lpm),Bypass flow (lpm),Sample temperature (°C),Ambient temperature (°C),ASC tube jacket temperature (°C),LED temperature (°C),Box temperature (°C),Sample RH (%),Span deviation,Mass concentration (μg/m³),Mass concentration (μg/m³),Mass concentration (μg/m³)
DateTimeUTC,F1_M11,P_M11,Q1_M11,Q2_M11,T1_M11,T2_M11,T3_M11,T4_M11,T5_M11,U1_M11,ZSPAN_M11,X2_M11,X0_M11,X1_M11
2021-10-24 21:00:00,,0820.9,4.98,0.00,29.7,28.9,00.0,38.8,31.5,09.4,0000.0,0000.97,0001.71,0000.60
2021-10-24 21:01:00,,0820.9,5.00,0.00,29.8,28.9,00.0,38.8,31.5,09.5,0000.0,0000.94,0001.64,0000.60
2021-10-24 21:02:00,,0821.0,5.00,0.00,29.8,28.9,00.0,38.8,31.5,09.5,0000.0,0000.88,0001.54,0000.60
2021-10-24 21:03:00,,0821.1,5.00,0.00,29.8,28.9,00.0,38.8,31.5,09.5,0000.0,0000.88,0001.62,0000.60
2021-10-24 21:04:00,,0821.0,5.00,0.00,29.8,29.0,00.0,38.9,31.5,09.4,0000.0,0000.90,0001.66,0000.60
2021-10-24 21:05:00,,0821.0,5.01,0.00,29.8,29.0,00.0,38.9,31.5,09.4,0000.0,0000.87,0001.62,0000.60
2021-10-24 21:06:00,,0821.0,5.00,0.00,29.8,29.0,00.0,38.9,31.5,09.5,0000.0,0000.82,0001.46,0000.59
2021-10-24 21:07:00,,0820.9,5.00,0.00,29.8,29.0,00.0,38.9,31.5,09.6,0000.0,0000.82,0001.42,0000.59
2021-10-24 21:08:00,,0820.9,5.01,0.00,29.8,29.0,00.0,38.9,31.5,09.6,0000.0,0000.80,0001.37,0000.59
2021-10-24 21:09:00,,0821.0,4.99,0.00,29.8,29.0,00.0,38.9,31.5,09.6,0000.0,0000.78,0001.30,0000.60
2021-10-24 21:10:00,,0821.0,5.01,0.00,29.8,29.0,00.0,38.9,31.5,09.6,0000.0,0000.77,0001.27,0000.60
2021-10-24 21:11:00,,0821.0,5.00,0.00,29.9,29.0,00.0,38.9,31.6,09.4,0000.0,0000.76,0001.22,0000.60
2021-10-24 21:12:00,,0821.0,4.99,0.00,29.8,29.0,00.0,38.9,31.5,09.2,0000.0,0000.76,0001.25,0000.60
2021-10-24 21:13:00,,0821.0,5.00,0.00,29.8,29.0,00.0,38.9,31.5,09.6,0000.0,0000.77,0001.26,0000.60
2021-10-24 21:14:00,,0821.1,5.00,0.00,29.8,29.1,00.0,38.9,31.6,09.5,0000.0,0000.76,0001.16,0000.60
2021-10-24 21:15:00,,0821.1,5.00,0.00,29.8,29.1,00.0,39.0,31.6,09.5,0000.0,0000.78,0001.22,0000.60
2021-10-24 21:16:00,,0821.1,5.01,0.00,29.9,29.1,00.0,39.0,31.6,09.8,0000.0,0000.78,0001.23,0000.60
2021-10-24 21:17:00,,0821.1,5.01,0.00,29.9,29.1,00.0,39.0,31.6,09.7,0000.0,0000.78,0001.24,0000.61
2021-10-24 21:18:00,,0821.0,4.98,0.00,29.9,29.1,00.0,39.0,31.6,09.6,0000.0,0000.77,0001.22,0000.60
2021-10-24 21:19:00,,0821.0,5.00,0.00,29.9,29.2,00.0,39.0,31.7,09.7,0000.0,0000.79,0001.25,0000.60
2021-10-24 21:20:00,,0821.0,5.01,0.00,29.9,29.2,00.0,39.0,31.7,09.6,0000.0,0000.79,0001.25,0000.60
2021-10-24 21:21:00,,0821.0,5.00,0.00,30.0,29.2,00.0,39.0,31.7,09.6,0000.0,0000.82,0001.40,0000.61
2021-10-24 21:22:00,,0821.0,5.00,0.00,30.0,29.2,00.0,39.0,31.8,09.7,0000.0,0000.83,0001.43,0000.61
2021-10-24 21:23:00,,0821.0,4.99,0.00,30.0,29.2,00.0,39.0,31.7,09.8,0000.0,0000.86,0001.48,0000.62
2021-10-24 21:24:00,,0821.0,5.00,0.00,30.0,29.2,00.0,39.0,31.7,09.8,0000.0,0000.87,0001.59,0000.62
2021-10-24 21:25:00,,0821.1,5.01,0.00,30.0,29.2,00.0,39.1,31.8,09.7,0000.0,0000.86,0001.60,0000.62
2021-10-24 21:26:00,,0821.1,4.99,0.00,30.0,29.2,00.0,39.1,31.7,09.6,0000.0,0000.86,0001.58,0000.62
2021-10-24 21:27:00,,0821.1,5.00,0.00,30.0,29.2,00.0,39.1,31.8,09.7,0000.0,0000.88,0001.63,0000.62
2021-10-24 21:28:00,,0821.1,5.01,0.00,30.0,29.2,00.0,39.1,31.7,09.8,0000.0,0000.88,0001.68,0000.61
2021-10-24 21:29:00,,0821.0,5.01,0.00,30.0,29.2,00.0,39.1,31.7,09.8,0000.0,0000.92,0001.75,0000.62
2021-10-24 21:30:00,,0821.0,4.99,0.00,30.0,29.2,00.0,39.1,31.8,09.9,0000.0,0000.95,0001.83,0000.62
2021-10-24 21:31:00,,0821.1,5.00,0.00,30.1,29.2,00.0,39.1,31.8,09.9,0000.0,0000.96,0001.84,0000.62
2021-10-24 21:32:00,,0821.1,5.01,0.00,30.1,29.2,00.0,39.1,31.7,09.9,0000.0,0000.97,0001.75,0000.62
2021-10-24 21:33:00,,0821.0,5.00,0.00,30.1,29.2,00.0,39.1,31.8,09.8,0000.0,0000.98,0001.77,0000.62
2021-10-24 21:34:00,,0821.0,5.00,0.00,30.1,29.2,00.0,39.1,31.8,09.7,0000.0,0000.96,0001.75,0000.61
2021-10-24 21:35:00,,0821.1,4.99,0.00,30.1,29.3,00.0,39.1,31.8,09.7,0000.0,0000.94,0001.62,0000.61
2021-10-24 21:36:00,,0821.0,5.01,0.00,30.1,29.3,00.0,39.1,31.9,09.8,0000.0,0000.95,0001.63,0000.61
2021-10-24 21:37:00,,0821.0,5.00,0.00,30.1,29.4,00.0,39.2,31.9,09.8,0000.0,0000.92,0001.57,0000.61
2021-10-24 21:38:00,,0821.0,5.00,0.00,30.2,29.4,00.0,39.2,31.9,09.8,0000.0,0000.91,0001.59,0000.60
2021-10-24 21:39:00,,0821.0,4.99,0.00,30.2,29.4,00.0,39.2,32.0,09.7,0000.0,0000.90,0001.55,0000.60
2021-10-24 21:40:00,,0821.0,5.00,0.00,30.2,29.4,00.0,39.2,32.0,09.7,0000.0,0000.89,0001.93,0000.60
2021-10-24 21:41:00,,0821.0,4.99,0.00,30.2,29.5,00.0,39.2,32.0,09.8,0000.0,0000.85,0002.18,0000.60
2021-10-24 21:42:00,,0821.0,5.01,0.00,30.2,29.5,00.0,39.2,32.0,09.8,0000.0,0000.89,0002.28,0000.60
2021-10-24 21:43:00,,0821.0,5.01,0.00,30.2,29.5,00.0,39.3,32.0,09.7,0000.0,0000.95,0002.53,0000.61
2021-10-24 21:44:00,,0821.0,4.99,0.00,30.3,29.5,00.0,39.3,32.0,09.7,0000.0,0000.96,0002.67,0000.60
2021-10-24 21:45:00,,0821.0,5.00,0.00,30.3,29.5,00.0,39.3,32.0,09.7,0000.0,0000.97,0002.64,0000.61
2021-10-24 21:46:00,,0821.0,5.00,0.00,30.3,29.5,00.0,39.3,32.0,09.8,0000.0,0001.00,0002.79,0000.62
2021-10-24 21:47:00,,0821.1,5.00,0.00,30.3,29.5,00.0,39.3,32.0,09.8,0000.0,0001.03,0002.86,0000.62
2021-10-24 21:48:00,,0821.1,5.00,0.00,30.3,29.5,00.0,39.3,32.0,09.6,0000.0,0001.04,0002.89,0000.62
2021-10-24 21:49:00,,0821.1,5.01,0.00,30.3,29.5,00.0,39.3,32.0,09.7,0000.0,0001.03,0002.89,0000.62
2021-10-24 21:50:00,,0820.9,5.00,0.00,30.3,29.5,00.0,39.3,32.0,09.7,0000.0,0001.04,0002.90,0000.61
2021-10-24 21:51:00,,0821.0,5.01,0.00,30.3,29.5,00.0,39.3,32.0,09.7,0000.0,0001.02,0002.54,0000.62
2021-10-24 21:52:00,,0821.2,4.99,0.00,30.3,29.5,00.0,39.3,32.0,09.7,0000.0,0001.00,0002.07,0000.61
2021-10-24 21:53:00,,0821.3,5.01,0.00,30.3,29.5,00.0,39.4,32.0,09.7,0000.0,0001.00,0002.17,0000.61
2021-10-24 21:54:00,,0821.2,5.00,0.00,30.3,29.5,00.0,39.4,32.0,09.7,0000.0,0000.95,0002.06,0000.61
2021-10-24 21:55:00,,0821.2,5.01,0.00,30.3,29.5,00.0,39.4,32.0,09.8,0000.0,0000.95,0001.93,0000.61
2021-10-24 21:56:00,,0821.2,5.01,0.00,30.3,29.5,00.0,39.4,31.9,09.8,0000.0,0000.96,0001.98,0000.61
2021-10-24 21:57:00,,0821.3,5.00,0.00,30.3,29.5,00.0,39.4,31.9,09.9,0000.0,0000.93,0001.88,0000.61
2021-10-24 21:58:00,,0821.3,5.02,0.00,30.3,29.5,00.0,39.4,32.0,09.8,0000.0,0000.89,0001.71,0000.61
2021-10-24 21:59:00,,0821.2,5.00,0.00,30.3,29.5,00.0,39.4,31.9,09.9,0000.0,0000.89,0001.66,0000.62
